Time,TemperatureF,DewpointF,PressureIn,WindDirection,WindDirectionDegrees,WindSpeedMPH,WindSpeedGustMPH,Humidity,HourlyPrecipIn,Conditions,Clouds,dailyrainin,SoftwareType,DateUTC
2013-06-07 00:01:00,53.7,53.7,29.96,NE,47,1.4,3.5,100,0.00,RA,,0.00,WeatherDisplay:10.37,2013-06-07 05:01:00,
2013-06-07 00:06:00,53.7,53.7,29.96,NW,322,0.2,1.2,100,0.00,RA,,0.00,WeatherDisplay:10.37,2013-06-07 05:06:00,
2013-06-07 00:11:00,53.7,53.7,29.96,NW,311,0.0,0.0,100,0.00,OVC,,0.00,WeatherDisplay:10.37,2013-06-07 05:11:00,
2013-06-07 00:16:00,53.7,53.7,29.96,NNE,19,0.0,0.0,100,0.00,OVC,,0.00,WeatherDisplay:10.37,2013-06-07 05:16:00,
2013-06-07 00:21:00,53.6,53.6,29.96,NNE,19,0.0,0.0,100,0.00,OVC,,0.00,WeatherDisplay:10.37,2013-06-07 05:21:00,
2013-06-07 00:27:00,53.6,53.6,29.97,NNE,19,0.0,0.0,100,0.00,OVC,,0.00,WeatherDisplay:10.37,2013-06-07 05:27:00,
2013-06-07 00:32:00,53.6,53.6,29.97,NNE,19,0.0,0.0,100,0.00,OVC,,0.00,WeatherDisplay:10.37,2013-06-07 05:32:00,
2013-06-07 00:37:00,53.5,53.5,29.97,NE,48,0.2,2.3,100,0.00,OVC,,0.00,WeatherDisplay:10.37,2013-06-07 05:37:00,
2013-06-07 00:42:00,53.5,53.5,29.97,NNE,13,0.4,1.6,100,0.00,OVC,,0.00,WeatherDisplay:10.37,2013-06-07 05:42:00,
2013-06-07 00:47:00,53.4,53.4,29.96,NE,47,1.2,2.3,100,0.00,OVC,,0.00,WeatherDisplay:10.37,2013-06-07 05:47:00,
2013-06-07 00:52:00,53.4,53.4,29.96,NE,38,0.0,1.5,100,0.00,OVC,,0.00,WeatherDisplay:10.37,2013-06-07 05:52:00,
2013-06-07 00:57:00,53.4,53.4,29.96,North,2,1.2,2.3,100,0.00,OVC,,0.00,WeatherDisplay:10.37,2013-06-07 05:57:00,
2013-06-07 01:02:00,53.4,53.4,29.96,NE,40,0.3,1.2,100,0.00,OVC,,0.00,WeatherDisplay:10.37,2013-06-07 06:02:00,
2013-06-07 01:07:00,53.4,53.4,29.96,NNE,20,1.2,2.3,100,0.00,OVC,,0.00,WeatherDisplay:10.37,2013-06-07 06:07:00,
2013-06-07 01:12:00,53.4,53.4,29.96,NE,45,0.0,1.2,100,0.00,OVC,,0.00,WeatherDisplay:10.37,2013-06-07 06:12:00,
2013-06-07 01:17:00,53.4,53.4,29.96,West,264,0.8,2.3,100,0.00,OVC,,0.00,WeatherDisplay:10.37,2013-06-07 06:17:00,
2013-06-07 01:22:00,53.3,53.3,29.96,West,264,0.0,0.0,100,0.00,OVC,,0.00,WeatherDisplay:10.37,2013-06-07 06:22:00,
2013-06-07 01:27:00,53.3,53.3,29.95,NE,38,0.0,0.0,100,0.00,OVC,,0.00,WeatherDisplay:10.37,2013-06-07 06:27:00,
2013-06-07 01:32:00,53.3,53.3,29.95,NE,43,1.8,3.5,100,0.00,OVC,,0.00,WeatherDisplay:10.37,2013-06-07 06:32:00,
2013-06-07 01:37:00,53.2,53.2,29.95,NNE,24,0.0,0.0,100,0.00,OVC,,0.00,WeatherDisplay:10.37,2013-06-07 06:37:00,
2013-06-07 01:42:00,53.2,53.2,29.96,NE,43,0.5,3.5,100,0.00,OVC,,0.00,WeatherDisplay:10.37,2013-06-07 06:42:00,
2013-06-07 01:47:00,53.2,53.2,29.96,NE,40,0.0,0.0,100,0.00,OVC,,0.00,WeatherDisplay:10.37,2013-06-07 06:47:00,
2013-06-07 01:52:00,53.3,53.3,29.96,North,9,0.6,2.0,100,0.00,OVC,,0.00,WeatherDisplay:10.37,2013-06-07 06:52:00,
2013-06-07 01:57:00,53.3,53.3,29.95,NW,324,0.3,1.2,100,0.00,OVC,,0.00,WeatherDisplay:10.37,2013-06-07 06:57:00,
2013-06-07 02:02:00,53.3,53.3,29.95,NNE,24,0.7,2.3,100,0.00,OVC,,0.00,WeatherDisplay:10.37,2013-06-07 07:02:00,
2013-06-07 02:07:00,53.3,53.3,29.95,NW,326,0.5,2.7,100,0.00,OVC,,0.00,WeatherDisplay:10.37,2013-06-07 07:07:00,
2013-06-07 02:12:00,53.2,53.2,29.95,NNW,345,1.7,2.3,100,0.00,OVC,,0.00,WeatherDisplay:10.37,2013-06-07 07:12:00,
2013-06-07 02:17:00,53.2,53.2,29.96,NW,324,0.0,1.2,100,0.00,OVC,,0.00,WeatherDisplay:10.37,2013-06-07 07:17:00,
2013-06-07 02:22:00,53.2,53.2,29.95,ENE,76,1.7,3.5,100,0.00,OVC,,0.00,WeatherDisplay:10.37,2013-06-07 07:22:00,
2013-06-07 02:27:00,53.2,53.2,29.95,NNW,333,0.0,0.0,100,0.00,OVC,,0.00,WeatherDisplay:10.37,2013-06-07 07:27:00,
2013-06-07 02:32:00,53.1,53.1,29.95,North,350,0.5,2.3,100,0.00,OVC,,0.00,WeatherDisplay:10.37,2013-06-07 07:32:00,
2013-06-07 02:37:00,53.1,53.1,29.95,NE,47,2.6,4.6,100,0.00,OVC,,0.00,WeatherDisplay:10.37,2013-06-07 07:37:00,
2013-06-07 02:42:00,53.1,53.1,29.95,North,3,1.8,4.6,100,0.00,OVC,,0.00,WeatherDisplay:10.37,2013-06-07 07:42:00,
2013-06-07 02:47:00,53.1,53.1,29.95,NE,55,0.0,0.0,100,0.00,OVC,,0.00,WeatherDisplay:10.37,2013-06-07 07:47:00,
2013-06-07 02:52:00,53.1,53.1,29.95,NNE,12,0.9,2.3,100,0.00,OVC,,0.00,WeatherDisplay:10.37,2013-06-07 07:52:00,
2013-06-07 02:57:00,53.2,53.2,29.95,NNW,336,0.4,1.2,100,0.00,OVC,,0.00,WeatherDisplay:10.37,2013-06-07 07:57:00,
2013-06-07 03:02:00,53.0,53.0,29.95,ENE,58,0.4,1.2,100,0.00,OVC,,0.00,WeatherDisplay:10.37,2013-06-07 08:02:00,
2013-06-07 03:07:00,53.1,53.1,29.95,North,2,0.6,1.2,100,0.00,OVC,,0.00,WeatherDisplay:10.37,2013-06-07 08:07:00,
2013-06-07 03:12:00,53.0,53.0,29.95,SW,228,1.2,2.3,100,0.00,OVC,,0.00,WeatherDisplay:10.37,2013-06-07 08:12:00,
2013-06-07 03:17:00,53.0,53.0,29.95,NNW,342,1.0,2.3,100,0.00,OVC,,0.00,WeatherDisplay:10.37,2013-06-07 08:17:00,
2013-06-07 03:22:00,53.0,53.0,29.94,WNW,292,0.9,2.3,100,0.00,OVC,,0.00,WeatherDisplay:10.37,2013-06-07 08:22:00,
2013-06-07 03:27:00,52.9,52.9,29.94,North,357,1.5,2.8,100,0.00,OVC,,0.00,WeatherDisplay:10.37,2013-06-07 08:27:00,
2013-06-07 03:32:00,53.0,53.0,29.95,NNW,332,0.0,0.0,100,0.00,OVC,,0.00,WeatherDisplay:10.37,2013-06-07 08:32:00,
2013-06-07 03:37:00,53.0,53.0,29.95,NNW,332,0.0,0.0,100,0.00,OVC,,0.00,WeatherDisplay:10.37,2013-06-07 08:37:00,
2013-06-07 03:42:00,52.9,52.9,29.95,NE,52,0.0,0.0,100,0.00,OVC,,0.00,WeatherDisplay:10.37,2013-06-07 08:42:00,
2013-06-07 03:47:00,53.0,53.0,29.95,NNE,26,0.0,0.0,100,0.00,OVC,,0.00,WeatherDisplay:10.37,2013-06-07 08:47:00,
2013-06-07 03:52:00,52.9,52.9,29.95,NNE,26,0.0,0.0,100,0.00,OVC,,0.00,WeatherDisplay:10.37,2013-06-07 08:52:00,
2013-06-07 03:57:00,52.9,52.9,29.95,NNE,26,0.0,0.0,100,0.00,OVC,,0.00,WeatherDisplay:10.37,2013-06-07 08:57:00,
2013-06-07 04:02:00,53.0,53.0,29.95,North,356,1.2,2.3,100,0.00,OVC,,0.00,WeatherDisplay:10.37,2013-06-07 09:02:00,
2013-06-07 04:07:00,52.9,52.9,29.95,North,6,0.0,0.0,100,0.00,OVC,,0.00,WeatherDisplay:10.37,2013-06-07 09:07:00,
2013-06-07 04:12:00,52.9,52.9,29.95,North,6,0.0,0.0,100,0.00,OVC,,0.00,WeatherDisplay:10.37,2013-06-07 09:12:00,
2013-06-07 04:17:00,52.9,52.9,29.95,NNW,342,0.2,1.2,100,0.00,OVC,,0.00,WeatherDisplay:10.37,2013-06-07 09:17:00,
2013-06-07 04:22:00,53.0,53.0,29.95,NW,319,0.2,1.2,100,0.00,OVC,,0.00,WeatherDisplay:10.37,2013-06-07 09:22:00,
2013-06-07 04:27:00,52.9,52.9,29.95,NW,319,0.0,0.0,100,0.00,OVC,,0.00,WeatherDisplay:10.37,2013-06-07 09:27:00,
2013-06-07 04:32:00,52.9,52.9,29.95,NW,319,0.0,0.0,100,0.00,OVC,,0.00,WeatherDisplay:10.37,2013-06-07 09:32:00,
2013-06-07 04:37:00,52.9,52.9,29.95,NW,319,0.0,0.0,100,0.00,OVC,,0.00,WeatherDisplay:10.37,2013-06-07 09:37:00,
2013-06-07 04:42:00,52.8,52.8,29.95,NE,52,0.3,2.4,100,0.00,OVC,,0.00,WeatherDisplay:10.37,2013-06-07 09:42:00,
2013-06-07 04:47:00,52.8,52.8,29.95,NE,55,0.6,2.3,100,0.00,OVC,,0.00,WeatherDisplay:10.37,2013-06-07 09:47:00,
2013-06-07 04:52:00,52.8,52.8,29.95,NNE,23,0.0,0.0,100,0.00,OVC,,0.00,WeatherDisplay:10.37,2013-06-07 09:52:00,
2013-06-07 04:57:00,52.7,52.7,29.95,NW,314,0.1,2.3,100,0.00,OVC,,0.00,WeatherDisplay:10.37,2013-06-07 09:57:00,
2013-06-07 05:02:00,52.7,52.7,29.95,NNE,30,0.0,0.0,100,0.00,OVC,,0.00,WeatherDisplay:10.37,2013-06-07 10:02:00,
2013-06-07 05:07:00,52.6,52.6,29.95,NNW,333,2.5,3.5,100,0.00,OVC,,0.00,WeatherDisplay:10.37,2013-06-07 10:07:00,
2013-06-07 05:12:00,52.7,52.7,29.95,NNW,339,2.0,3.5,100,0.00,OVC,,0.00,WeatherDisplay:10.37,2013-06-07 10:12:00,
2013-06-07 05:17:00,52.6,52.6,29.95,NE,41,0.0,0.0,100,0.00,OVC,,0.00,WeatherDisplay:10.37,2013-06-07 10:17:00,
2013-06-07 05:22:00,52.6,52.6,29.95,ENE,78,0.4,3.0,100,0.00,OVC,,0.00,WeatherDisplay:10.37,2013-06-07 10:22:00,
2013-06-07 05:27:00,52.4,52.4,29.95,NE,52,1.6,4.6,100,0.00,OVC,,0.00,WeatherDisplay:10.37,2013-06-07 10:27:00,
2013-06-07 05:32:00,52.4,52.4,29.95,NNE,31,0.0,1.2,100,0.00,OVC,,0.00,WeatherDisplay:10.37,2013-06-07 10:32:00,
2013-06-07 05:37:00,52.6,52.6,29.95,NNE,31,0.0,0.0,100,0.00,OVC,,0.00,WeatherDisplay:10.37,2013-06-07 10:37:00,
2013-06-07 05:42:00,52.6,52.6,29.96,North,6,0.6,1.6,100,0.00,OVC,,0.00,WeatherDisplay:10.37,2013-06-07 10:42:00,
2013-06-07 05:47:00,52.5,52.5,29.96,ENE,78,0.6,2.3,100,0.00,OVC,,0.00,WeatherDisplay:10.37,2013-06-07 10:47:00,
2013-06-07 05:52:00,52.6,52.6,29.95,NE,55,0.6,2.1,100,0.00,OVC,,0.00,WeatherDisplay:10.37,2013-06-07 10:52:00,
2013-06-07 05:57:00,52.6,52.6,29.95,WNW,298,0.8,2.3,100,0.00,OVC,,0.00,WeatherDisplay:10.37,2013-06-07 10:57:00,
2013-06-07 06:02:00,52.4,52.4,29.96,NNW,335,2.2,4.6,100,0.00,OVC,,0.00,WeatherDisplay:10.37,2013-06-07 11:02:00,
2013-06-07 06:07:00,52.6,52.6,29.96,ENE,72,0.2,1.2,100,0.00,OVC,,0.00,WeatherDisplay:10.37,2013-06-07 11:07:00,
2013-06-07 06:12:00,52.4,52.4,29.96,NNE,26,1.3,3.5,100,0.00,OVC,,0.00,WeatherDisplay:10.37,2013-06-07 11:12:00,
2013-06-07 06:17:00,52.4,52.1,29.96,East,81,0.0,0.0,99,0.00,OVC,,0.00,WeatherDisplay:10.37,2013-06-07 11:17:00,
2013-06-07 06:22:00,52.4,52.1,29.96,North,4,0.1,1.2,99,0.00,OVC,,0.00,WeatherDisplay:10.37,2013-06-07 11:22:00,
2013-06-07 06:27:00,52.4,52.1,29.96,North,4,0.0,0.0,99,0.00,OVC,,0.00,WeatherDisplay:10.37,2013-06-07 11:27:00,
2013-06-07 06:32:00,52.5,52.2,29.96,North,4,0.0,0.0,99,0.00,OVC,,0.00,WeatherDisplay:10.37,2013-06-07 11:32:00,
2013-06-07 06:37:00,52.6,52.1,29.96,NE,48,1.7,4.6,98,0.00,OVC,,0.00,WeatherDisplay:10.37,2013-06-07 11:37:00,
2013-06-07 06:42:00,52.8,52.3,29.97,NNE,20,0.6,2.9,98,0.00,OVC,,0.00,WeatherDisplay:10.37,2013-06-07 11:42:00,
2013-06-07 06:47:00,52.7,52.2,29.97,East,82,0.2,1.2,98,0.00,OVC,,0.00,WeatherDisplay:10.37,2013-06-07 11:47:00,
2013-06-07 06:52:00,52.7,52.2,29.97,North,359,1.5,2.3,98,0.00,OVC,,0.00,WeatherDisplay:10.37,2013-06-07 11:52:00,
2013-06-07 06:57:00,52.8,52.3,29.97,NE,44,0.1,1.5,98,0.00,OVC,,0.00,WeatherDisplay:10.37,2013-06-07 11:57:00,
2013-06-07 07:02:00,52.8,52.3,29.97,NNE,13,0.0,0.0,98,0.00,OVC,,0.00,WeatherDisplay:10.37,2013-06-07 12:02:00,
2013-06-07 07:07:00,52.9,52.4,29.97,NW,321,1.4,2.3,98,0.00,OVC,,0.00,WeatherDisplay:10.37,2013-06-07 12:07:00,
2013-06-07 07:12:00,52.9,52.1,29.97,NE,37,2.0,2.4,97,0.00,OVC,,0.00,WeatherDisplay:10.37,2013-06-07 12:12:00,
2013-06-07 07:17:00,53.0,52.2,29.97,ENE,62,2.0,5.8,97,0.00,OVC,,0.00,WeatherDisplay:10.37,2013-06-07 12:17:00,
2013-06-07 07:22:00,53.0,52.2,29.97,ENE,68,1.1,2.3,97,0.00,OVC,,0.00,WeatherDisplay:10.37,2013-06-07 12:22:00,
2013-06-07 07:27:00,53.1,52.3,29.98,NNE,14,0.5,1.1,97,0.00,OVC,,0.00,WeatherDisplay:10.37,2013-06-07 12:27:00,
2013-06-07 07:32:00,53.3,52.5,29.98,NNE,12,1.6,2.5,97,0.00,OVC,,0.00,WeatherDisplay:10.37,2013-06-07 12:32:00,
2013-06-07 07:37:00,53.3,52.2,29.97,NE,48,1.7,3.5,96,0.00,OVC,,0.00,WeatherDisplay:10.37,2013-06-07 12:37:00,
2013-06-07 07:42:00,53.4,52.3,29.98,NNE,16,1.5,2.3,96,0.00,OVC,,0.00,WeatherDisplay:10.37,2013-06-07 12:42:00,
2013-06-07 07:47:00,53.5,52.4,29.98,NNE,28,2.1,3.5,96,0.00,OVC,,0.00,WeatherDisplay:10.37,2013-06-07 12:47:00,
2013-06-07 07:52:00,53.7,52.3,29.98,ENE,60,1.0,3.3,95,0.00,OVC,,0.00,WeatherDisplay:10.37,2013-06-07 12:52:00,
2013-06-07 07:57:00,53.8,52.1,29.98,North,6,1.9,4.6,94,0.00,OVC,,0.00,WeatherDisplay:10.37,2013-06-07 12:57:00,
2013-06-07 08:02:00,54.0,52.3,29.98,NE,45,0.0,0.0,94,0.00,OVC,,0.00,WeatherDisplay:10.37,2013-06-07 13:02:00,
2013-06-07 08:07:00,54.1,51.8,29.98,WNW,294,2.5,4.6,92,0.00,OVC,,0.00,WeatherDisplay:10.37,2013-06-07 13:07:00,
2013-06-07 08:12:00,54.0,51.4,29.98,NE,47,2.9,3.5,91,0.00,OVC,,0.00,WeatherDisplay:10.37,2013-06-07 13:12:00,
2013-06-07 08:17:00,54.0,51.7,29.98,North,6,3.0,5.8,92,0.00,OVC,,0.00,WeatherDisplay:10.37,2013-06-07 13:17:00,
2013-06-07 08:22:00,54.4,52.1,29.98,NNW,342,1.3,2.3,92,0.00,OVC,,0.00,WeatherDisplay:10.37,2013-06-07 13:22:00,
2013-06-07 08:27:00,54.3,52.0,29.98,North,350,0.4,4.6,92,0.00,OVC,,0.00,WeatherDisplay:10.37,2013-06-07 13:27:00,
2013-06-07 08:32:00,54.6,52.3,29.99,ENE,69,2.6,4.6,92,0.00,OVC,,0.00,WeatherDisplay:10.37,2013-06-07 13:32:00,
2013-06-07 08:37:00,54.5,51.3,29.99,ENE,78,3.1,6.9,89,0.00,OVC,,0.00,WeatherDisplay:10.37,2013-06-07 13:37:00,
2013-06-07 08:42:00,54.4,51.8,29.99,NNE,31,3.2,5.8,91,0.00,OVC,,0.00,WeatherDisplay:10.37,2013-06-07 13:42:00,
2013-06-07 08:47:00,54.2,51.0,29.99,ENE,67,4.0,8.1,89,0.00,OVC,,0.00,WeatherDisplay:10.37,2013-06-07 13:47:00,
2013-06-07 08:52:00,54.4,51.8,29.99,SE,129,1.9,3.5,91,0.00,OVC,,0.00,WeatherDisplay:10.37,2013-06-07 13:52:00,
2013-06-07 08:57:00,54.6,52.0,29.99,NE,37,1.7,2.3,91,0.00,OVC,,0.00,WeatherDisplay:10.37,2013-06-07 13:57:00,
2013-06-07 09:02:00,54.7,52.4,30.00,NE,36,4.0,4.1,92,0.00,OVC,,0.00,WeatherDisplay:10.37,2013-06-07 14:02:00,
2013-06-07 09:07:00,54.3,51.4,29.99,SSW,211,5.3,8.1,90,0.00,OVC,,0.00,WeatherDisplay:10.37,2013-06-07 14:07:00,
2013-06-07 09:12:00,54.5,52.2,29.99,WNW,283,1.5,3.5,92,0.00,OVC,,0.00,WeatherDisplay:10.37,2013-06-07 14:12:00,
2013-06-07 09:17:00,54.4,52.1,29.99,NE,44,4.3,6.9,92,0.00,OVC,,0.00,WeatherDisplay:10.37,2013-06-07 14:17:00,
2013-06-07 09:22:00,54.7,52.4,29.99,NNE,20,3.9,5.8,92,0.00,OVC,,0.00,WeatherDisplay:10.37,2013-06-07 14:22:00,
2013-06-07 09:27:00,54.9,52.9,29.99,East,91,1.0,3.5,93,0.00,OVC,,0.00,WeatherDisplay:10.37,2013-06-07 14:27:00,
2013-06-07 09:32:00,55.1,52.8,29.99,NE,52,3.5,3.5,92,0.00,OVC,,0.00,WeatherDisplay:10.37,2013-06-07 14:32:00,
2013-06-07 09:37:00,55.1,52.8,29.99,NNE,26,0.7,4.6,92,0.00,OVC,,0.00,WeatherDisplay:10.37,2013-06-07 14:37:00,
2013-06-07 09:42:00,55.2,52.9,29.99,North,356,3.4,4.6,92,0.00,OVC,,0.00,WeatherDisplay:10.37,2013-06-07 14:42:00,
2013-06-07 09:47:00,55.5,52.9,29.99,NE,38,4.6,5.8,91,0.00,OVC,,0.00,WeatherDisplay:10.37,2013-06-07 14:47:00,
2013-06-07 09:52:00,55.8,53.2,29.99,ENE,65,5.5,6.4,91,0.00,OVC,,0.00,WeatherDisplay:10.37,2013-06-07 14:52:00,
2013-06-07 09:57:00,55.8,52.6,29.99,East,96,3.2,4.6,89,0.00,OVC,,0.00,WeatherDisplay:10.37,2013-06-07 14:57:00,
2013-06-07 10:02:00,55.9,53.0,29.99,ENE,64,3.9,6.9,90,0.00,OVC,,0.00,WeatherDisplay:10.37,2013-06-07 15:02:00,
2013-06-07 10:07:00,56.0,52.8,29.99,NE,51,4.6,6.9,89,0.00,OVC,,0.00,WeatherDisplay:10.37,2013-06-07 15:07:00,
2013-06-07 10:12:00,56.5,53.3,29.99,ENE,67,3.9,8.1,89,0.00,OVC,,0.00,WeatherDisplay:10.37,2013-06-07 15:12:00,
2013-06-07 10:17:00,56.8,53.9,29.99,North,4,3.0,4.6,90,0.00,OVC,,0.00,WeatherDisplay:10.37,2013-06-07 15:17:00,
2013-06-07 10:22:00,57.4,54.2,29.99,NE,41,2.1,3.9,89,0.00,OVC,,0.00,WeatherDisplay:10.37,2013-06-07 15:22:00,
2013-06-07 10:27:00,57.4,52.3,29.99,North,352,4.7,4.7,83,0.00,OVC,,0.00,WeatherDisplay:10.37,2013-06-07 15:27:00,
2013-06-07 10:32:00,57.8,53.3,29.99,North,355,3.2,6.9,85,0.00,OVC,,0.00,WeatherDisplay:10.37,2013-06-07 15:32:00,
2013-06-07 10:37:00,58.1,53.0,29.99,NNE,24,3.7,5.8,83,0.00,OVC,,0.00,WeatherDisplay:10.37,2013-06-07 15:37:00,
2013-06-07 10:42:00,58.1,53.6,29.99,NNE,27,2.1,4.3,85,0.00,OVC,,0.00,WeatherDisplay:10.37,2013-06-07 15:42:00,
2013-06-07 10:47:00,58.6,54.1,29.99,NNE,20,2.4,3.5,85,0.00,OVC,,0.00,WeatherDisplay:10.37,2013-06-07 15:47:00,
2013-06-07 10:52:00,59.3,52.4,29.99,NE,41,4.4,6.9,78,0.00,OVC,,0.00,WeatherDisplay:10.37,2013-06-07 15:52:00,
2013-06-07 10:57:00,59.4,53.2,29.99,NE,36,5.3,8.2,80,0.00,OVC,,0.00,WeatherDisplay:10.37,2013-06-07 15:57:00,
2013-06-07 11:02:00,59.9,52.7,29.99,NE,54,2.9,6.9,77,0.00,OVC,,0.00,WeatherDisplay:10.37,2013-06-07 16:02:00,
2013-06-07 11:07:00,59.4,52.9,29.99,ENE,67,5.8,6.3,79,0.00,OVC,,0.00,WeatherDisplay:10.37,2013-06-07 16:07:00,
2013-06-07 11:12:00,59.4,53.2,29.99,East,86,2.3,5.3,80,0.00,OVC,,0.00,WeatherDisplay:10.37,2013-06-07 16:12:00,
2013-06-07 11:17:00,58.8,52.3,29.99,ENE,62,4.2,9.2,79,0.00,OVC,,0.00,WeatherDisplay:10.37,2013-06-07 16:17:00,
2013-06-07 11:22:00,58.8,53.3,29.99,NE,37,4.5,6.2,82,0.00,OVC,,0.00,WeatherDisplay:10.37,2013-06-07 16:22:00,
2013-06-07 11:27:00,59.1,54.6,29.99,ENE,58,1.8,4.6,85,0.00,OVC,,0.00,WeatherDisplay:10.37,2013-06-07 16:27:00,
2013-06-07 11:32:00,59.5,54.0,29.99,NE,44,3.8,5.8,82,0.00,OVC,,0.00,WeatherDisplay:10.37,2013-06-07 16:32:00,
2013-06-07 11:37:00,59.4,53.9,29.99,ENE,65,1.4,6.9,82,0.00,OVC,,0.00,WeatherDisplay:10.37,2013-06-07 16:37:00,
2013-06-07 11:42:00,59.3,53.5,29.99,East,81,3.3,5.8,81,0.00,OVC,,0.00,WeatherDisplay:10.37,2013-06-07 16:42:00,
2013-06-07 11:47:00,59.4,53.2,29.99,NE,34,5.2,5.3,80,0.00,OVC,,0.00,WeatherDisplay:10.37,2013-06-07 16:47:00,
2013-06-07 11:52:00,59.5,54.7,29.99,ENE,62,3.2,4.6,84,0.00,OVC,,0.00,WeatherDisplay:10.37,2013-06-07 16:52:00,
2013-06-07 11:57:00,60.1,54.2,29.99,NNE,26,4.6,9.4,81,0.00,OVC,,0.00,WeatherDisplay:10.37,2013-06-07 16:57:00,
2013-06-07 12:02:00,60.7,53.8,29.98,East,99,4.3,9.2,78,0.00,BKN,,0.00,WeatherDisplay:10.37,2013-06-07 17:02:00,
2013-06-07 12:07:00,61.2,54.3,29.98,NNE,20,4.5,6.3,78,0.00,BKN,,0.00,WeatherDisplay:10.37,2013-06-07 17:07:00,
2013-06-07 12:12:00,61.4,53.8,29.98,SE,136,4.7,8.1,76,0.00,BKN,,0.00,WeatherDisplay:10.37,2013-06-07 17:12:00,
2013-06-07 12:17:00,62.4,56.1,29.98,ENE,72,4.3,4.6,80,0.00,BKN,,0.00,WeatherDisplay:10.37,2013-06-07 17:17:00,
2013-06-07 12:22:00,62.7,53.9,29.98,NE,48,6.5,10.4,73,0.00,BKN,,0.00,WeatherDisplay:10.37,2013-06-07 17:22:00,
2013-06-07 12:27:00,62.7,54.7,29.98,NE,44,1.6,4.6,75,0.00,BKN,,0.00,WeatherDisplay:10.37,2013-06-07 17:27:00,
2013-06-07 12:32:00,63.6,54.8,29.97,East,79,4.7,4.7,73,0.00,BKN,,0.00,WeatherDisplay:10.37,2013-06-07 17:32:00,
2013-06-07 12:37:00,64.0,54.0,29.98,East,88,2.1,3.5,70,0.00,BKN,,0.00,WeatherDisplay:10.37,2013-06-07 17:37:00,
2013-06-07 12:42:00,63.9,51.5,29.97,ENE,75,5.6,9.2,64,0.00,BKN,,0.00,WeatherDisplay:10.37,2013-06-07 17:42:00,
2013-06-07 12:47:00,64.0,52.4,29.97,NE,54,3.1,8.1,66,0.00,BKN,,0.00,WeatherDisplay:10.37,2013-06-07 17:47:00,
2013-06-07 12:52:00,64.3,51.9,29.97,East,95,3.2,4.6,64,0.00,BKN,,0.00,WeatherDisplay:10.37,2013-06-07 17:52:00,
2013-06-07 12:57:00,64.4,51.5,29.97,NE,38,1.8,5.8,63,0.00,BKN,,0.00,WeatherDisplay:10.37,2013-06-07 17:57:00,
2013-06-07 13:02:00,65.1,51.3,29.97,ESE,120,4.1,5.2,61,0.00,BKN,,0.00,WeatherDisplay:10.37,2013-06-07 18:02:00,
2013-06-07 13:08:00,65.5,51.7,29.96,NNE,20,3.0,4.6,61,0.00,BKN,,0.00,WeatherDisplay:10.37,2013-06-07 18:08:00,
2013-06-07 13:13:00,66.5,52.2,29.96,WSW,250,0.6,1.2,60,0.00,BKN,,0.00,WeatherDisplay:10.37,2013-06-07 18:13:00,
2013-06-07 13:18:00,65.8,48.7,29.96,ENE,71,6.1,6.9,54,0.00,BKN,,0.00,WeatherDisplay:10.37,2013-06-07 18:18:00,
2013-06-07 13:23:00,65.9,49.3,29.96,ENE,67,0.0,3.5,55,0.00,BKN,,0.00,WeatherDisplay:10.37,2013-06-07 18:23:00,
2013-06-07 13:28:00,66.4,50.2,29.96,North,7,3.3,4.6,56,0.00,BKN,,0.00,WeatherDisplay:10.37,2013-06-07 18:28:00,
2013-06-07 13:33:00,66.3,50.6,29.96,East,95,4.7,4.7,57,0.00,BKN,,0.00,WeatherDisplay:10.37,2013-06-07 18:33:00,
2013-06-07 13:38:00,67.0,53.1,29.96,South,172,0.6,3.5,61,0.00,BKN,,0.00,WeatherDisplay:10.37,2013-06-07 18:38:00,
2013-06-07 13:43:00,68.1,52.8,29.96,East,82,1.8,2.7,58,0.00,BKN,,0.00,WeatherDisplay:10.37,2013-06-07 18:43:00,
2013-06-07 13:48:00,68.5,51.2,29.96,South,184,4.0,6.9,54,0.00,BKN,,0.00,WeatherDisplay:10.37,2013-06-07 18:48:00,
2013-06-07 13:54:00,68.7,51.4,29.96,NNE,33,2.4,5.8,54,0.00,BKN,,0.00,WeatherDisplay:10.37,2013-06-07 18:54:00,
2013-06-07 14:00:00,68.2,50.4,29.96,South,171,1.1,9.2,53,0.00,BKN,,0.00,WeatherDisplay:10.37,2013-06-07 19:00:00,
2013-06-07 14:05:00,67.5,48.2,29.96,SE,127,3.9,6.9,50,0.00,SCT,,0.00,WeatherDisplay:10.37,2013-06-07 19:05:00,
2013-06-07 14:10:00,67.2,49.0,29.96,SE,136,1.3,5.8,52,0.00,SCT,,0.00,WeatherDisplay:10.37,2013-06-07 19:10:00,
2013-06-07 14:15:00,66.8,48.1,29.96,ENE,68,5.7,10.4,51,0.00,SCT,,0.00,WeatherDisplay:10.37,2013-06-07 19:15:00,
2013-06-07 14:21:00,67.4,48.6,29.96,NNE,20,4.0,6.9,51,0.00,SCT,,0.00,WeatherDisplay:10.37,2013-06-07 19:21:00,
2013-06-07 14:26:00,67.3,48.0,29.95,East,100,4.7,6.9,50,0.00,SCT,,0.00,WeatherDisplay:10.37,2013-06-07 19:26:00,
2013-06-07 14:31:00,68.2,49.9,29.95,East,93,3.2,3.4,52,0.00,SCT,,0.00,WeatherDisplay:10.37,2013-06-07 19:31:00,
2013-06-07 14:36:00,68.1,48.8,29.95,ENE,78,4.8,8.1,50,0.00,SCT,,0.00,WeatherDisplay:10.37,2013-06-07 19:36:00,
2013-06-07 14:41:00,68.1,48.2,29.95,East,96,2.5,5.8,49,0.00,SCT,,0.00,WeatherDisplay:10.37,2013-06-07 19:41:00,
2013-06-07 14:47:00,68.3,47.8,29.95,ENE,67,5.2,8.1,48,0.00,SCT,,0.00,WeatherDisplay:10.37,2013-06-07 19:47:00,
2013-06-07 14:52:00,68.0,47.0,29.95,NE,44,5.5,9.2,47,0.00,SCT,,0.00,WeatherDisplay:10.37,2013-06-07 19:52:00,
2013-06-07 14:57:00,68.0,48.7,29.95,NE,34,4.8,8.1,50,0.00,SCT,,0.00,WeatherDisplay:10.37,2013-06-07 19:57:00,
2013-06-07 15:02:00,67.8,49.0,29.95,SE,130,3.0,4.6,51,0.00,SCT,,0.00,WeatherDisplay:10.37,2013-06-07 20:02:00,
2013-06-07 15:07:00,68.7,49.3,29.95,East,93,1.7,4.6,50,0.00,SCT,,0.00,WeatherDisplay:10.37,2013-06-07 20:07:00,
2013-06-07 15:12:00,68.2,45.4,29.95,NE,51,2.4,8.1,44,0.00,SCT,,0.00,WeatherDisplay:10.37,2013-06-07 20:12:00,
2013-06-07 15:17:00,68.9,47.3,29.95,NE,55,2.6,5.2,46,0.00,SCT,,0.00,WeatherDisplay:10.37,2013-06-07 20:17:00,
2013-06-07 15:22:00,68.5,44.5,29.95,ENE,67,6.9,9.2,42,0.00,SCT,,0.00,WeatherDisplay:10.37,2013-06-07 20:22:00,
2013-06-07 15:27:00,68.4,46.2,29.95,ENE,65,3.5,6.3,45,0.00,SCT,,0.00,WeatherDisplay:10.37,2013-06-07 20:27:00,
2013-06-07 15:33:00,68.5,45.1,29.95,NE,37,5.8,8.1,43,0.00,SCT,,0.00,WeatherDisplay:10.37,2013-06-07 20:33:00,
2013-06-07 15:38:00,68.7,47.1,29.95,WSW,246,0.1,1.1,46,0.00,SCT,,0.00,WeatherDisplay:10.37,2013-06-07 20:38:00,
2013-06-07 15:43:00,69.6,46.7,29.95,ENE,57,3.2,7.3,44,0.00,SCT,,0.00,WeatherDisplay:10.37,2013-06-07 20:43:00,
2013-06-07 15:49:00,69.6,46.1,29.94,NNE,20,3.8,8.1,43,0.00,SCT,,0.00,WeatherDisplay:10.37,2013-06-07 20:49:00,
2013-06-07 15:54:00,69.4,46.5,29.94,NW,316,1.3,4.6,44,0.00,SCT,,0.00,WeatherDisplay:10.37,2013-06-07 20:54:00,
2013-06-07 15:59:00,70.0,47.7,29.94,North,9,1.5,3.5,45,0.00,SCT,,0.00,WeatherDisplay:10.37,2013-06-07 20:59:00,
2013-06-07 16:04:00,69.8,48.1,29.94,NW,315,0.2,2.3,46,0.00,SCT,,0.00,WeatherDisplay:10.37,2013-06-07 21:04:00,
2013-06-07 16:09:00,70.3,46.1,29.94,East,96,4.7,6.9,42,0.00,SCT,,0.00,WeatherDisplay:10.37,2013-06-07 21:09:00,
2013-06-07 16:14:00,70.4,46.8,29.94,East,92,1.6,5.8,43,0.00,SCT,,0.00,WeatherDisplay:10.37,2013-06-07 21:14:00,
2013-06-07 16:19:00,71.1,48.1,29.94,NE,48,0.6,1.2,44,0.00,SCT,,0.00,WeatherDisplay:10.37,2013-06-07 21:19:00,
2013-06-07 16:25:00,70.7,45.8,29.94,ENE,70,2.0,7.0,41,0.00,SCT,SCT,0.00,WeatherDisplay:10.37,2013-06-07 21:25:00,
2013-06-07 16:30:00,69.9,45.8,29.94,NE,50,5.6,6.9,42,0.00,SCT,,0.00,WeatherDisplay:10.37,2013-06-07 21:30:00,
2013-06-07 16:35:00,69.3,45.2,29.94,NNE,23,3.4,5.8,42,0.00,SCT,,0.00,WeatherDisplay:10.37,2013-06-07 21:35:00,
2013-06-07 16:40:00,70.3,47.9,29.93,ENE,60,3.1,6.2,45,0.00,SCT,,0.00,WeatherDisplay:10.37,2013-06-07 21:40:00,
2013-06-07 16:45:00,70.0,48.8,29.93,NE,51,3.0,5.8,47,0.00,SCT,,0.00,WeatherDisplay:10.37,2013-06-07 21:45:00,
2013-06-07 16:50:00,69.2,49.2,29.93,ESE,102,1.0,4.6,49,0.00,SCT,,0.00,WeatherDisplay:10.37,2013-06-07 21:50:00,
2013-06-07 16:55:00,69.2,48.7,29.93,ENE,72,6.2,8.1,48,0.00,SCT,,0.00,WeatherDisplay:10.37,2013-06-07 21:55:00,
2013-06-07 17:01:00,69.1,48.0,29.93,North,3,4.1,8.1,47,0.00,BKN,,0.00,WeatherDisplay:10.37,2013-06-07 22:01:00,
2013-06-07 17:06:00,69.7,46.8,29.93,NE,50,2.3,5.8,44,0.00,BKN,,0.00,WeatherDisplay:10.37,2013-06-07 22:06:00,
2013-06-07 17:11:00,70.5,48.1,29.93,NE,40,2.4,3.5,45,0.00,BKN,,0.00,WeatherDisplay:10.37,2013-06-07 22:11:00,
2013-06-07 17:17:00,70.0,47.1,29.93,East,89,2.8,4.6,44,0.00,BKN,,0.00,WeatherDisplay:10.37,2013-06-07 22:17:00,
2013-06-07 17:22:00,69.6,47.3,29.93,NNE,26,0.1,1.2,45,0.00,BKN,,0.00,WeatherDisplay:10.37,2013-06-07 22:22:00,
2013-06-07 17:28:00,70.4,48.0,29.93,East,82,0.3,2.3,45,0.00,BKN,,0.00,WeatherDisplay:10.37,2013-06-07 22:28:00,
2013-06-07 17:33:00,70.9,49.1,29.93,East,82,0.0,0.0,46,0.00,BKN,,0.00,WeatherDisplay:10.37,2013-06-07 22:33:00,
2013-06-07 17:38:00,70.9,47.9,29.93,ENE,58,1.5,5.8,44,0.00,BKN,,0.00,WeatherDisplay:10.37,2013-06-07 22:38:00,
2013-06-07 17:43:00,69.7,48.0,29.93,ENE,57,6.5,6.5,46,0.00,BKN,,0.00,WeatherDisplay:10.37,2013-06-07 22:43:00,
2013-06-07 17:49:00,69.4,49.9,29.92,SE,139,1.8,3.5,50,0.00,BKN,,0.00,WeatherDisplay:10.37,2013-06-07 22:49:00,
2013-06-07 17:54:00,69.1,49.1,29.92,South,174,1.0,2.3,49,0.00,BKN,,0.00,WeatherDisplay:10.37,2013-06-07 22:54:00,
2013-06-07 17:59:00,68.6,49.2,29.92,North,349,2.1,2.3,50,0.00,BKN,,0.00,WeatherDisplay:10.37,2013-06-07 22:59:00,
2013-06-07 18:05:00,68.5,49.1,29.92,ENE,65,3.0,7.0,50,0.00,BKN,BKN,0.00,WeatherDisplay:10.37,2013-06-07 23:05:00,
2013-06-07 18:10:00,68.5,48.6,29.92,ENE,67,1.0,4.0,49,0.00,BKN,BKN,0.00,WeatherDisplay:10.37,2013-06-07 23:10:00,
2013-06-07 18:15:00,68.9,48.9,29.92,ESE,115,1.6,4.6,49,0.00,BKN,,0.00,WeatherDisplay:10.37,2013-06-07 23:15:00,
2013-06-07 18:20:00,68.9,47.8,29.92,SSE,158,3.5,6.9,47,0.00,BKN,,0.00,WeatherDisplay:10.37,2013-06-07 23:20:00,
2013-06-07 18:25:00,69.0,47.9,29.92,ESE,117,2.1,3.5,47,0.00,BKN,,0.00,WeatherDisplay:10.37,2013-06-07 23:25:00,
2013-06-07 18:30:00,68.7,47.6,29.92,East,89,2.6,5.8,47,0.00,BKN,,0.00,WeatherDisplay:10.37,2013-06-07 23:30:00,
2013-06-07 18:35:00,68.7,47.6,29.92,SE,129,2.2,3.5,47,0.00,BKN,,0.00,WeatherDisplay:10.37,2013-06-07 23:35:00,
2013-06-07 18:40:00,68.5,48.6,29.92,North,349,0.4,2.3,49,0.00,BKN,,0.00,WeatherDisplay:10.37,2013-06-07 23:40:00,
2013-06-07 18:46:00,68.7,47.6,29.92,East,92,0.5,4.6,47,0.00,BKN,,0.00,WeatherDisplay:10.37,2013-06-07 23:46:00,
2013-06-07 18:51:00,68.6,46.4,29.92,ENE,76,0.5,2.3,45,0.00,BKN,,0.00,WeatherDisplay:10.37,2013-06-07 23:51:00,
2013-06-07 18:56:00,68.4,45.6,29.92,ENE,69,2.3,3.5,44,0.00,BKN,,0.00,WeatherDisplay:10.37,2013-06-07 23:56:00,
2013-06-07 19:02:00,68.2,46.6,29.92,ESE,102,0.0,0.0,46,0.00,SCT,,0.00,WeatherDisplay:10.37,2013-06-08 00:02:00,
2013-06-07 19:07:00,67.9,46.3,29.92,ESE,102,0.0,0.0,46,0.00,SCT,,0.00,WeatherDisplay:10.37,2013-06-08 00:07:00,
2013-06-07 19:12:00,67.8,46.8,29.92,ESE,102,0.0,0.0,47,0.00,SCT,,0.00,WeatherDisplay:10.37,2013-06-08 00:12:00,
2013-06-07 19:18:00,68.1,47.1,29.92,East,100,0.0,0.0,47,0.00,SCT,,0.00,WeatherDisplay:10.37,2013-06-08 00:18:00,
2013-06-07 19:23:00,68.2,47.2,29.92,SE,139,0.0,0.0,47,0.00,SCT,,0.00,WeatherDisplay:10.37,2013-06-08 00:23:00,
2013-06-07 19:28:00,68.3,47.8,29.92,SE,139,0.0,0.0,48,0.00,SCT,,0.00,WeatherDisplay:10.37,2013-06-08 00:28:00,
2013-06-07 19:33:00,67.9,48.6,29.92,SE,139,0.0,0.0,50,0.00,SCT,,0.00,WeatherDisplay:10.37,2013-06-08 00:33:00,
2013-06-07 19:38:00,67.3,49.1,29.92,SE,139,0.0,0.0,52,0.00,SCT,,0.00,WeatherDisplay:10.37,2013-06-08 00:38:00,
2013-06-07 19:43:00,66.7,49.0,29.92,SE,139,0.0,0.0,53,0.00,SCT,,0.00,WeatherDisplay:10.37,2013-06-08 00:43:00,
2013-06-07 19:48:00,65.9,49.8,29.93,SE,139,0.0,0.0,56,0.00,SCT,,0.00,WeatherDisplay:10.37,2013-06-08 00:48:00,
2013-06-07 19:54:00,65.2,50.0,29.93,SE,139,0.0,0.0,58,0.00,SCT,,0.00,WeatherDisplay:10.37,2013-06-08 00:54:00,
2013-06-07 19:59:00,64.6,50.4,29.93,SE,139,0.0,0.0,60,0.00,SCT,,0.00,WeatherDisplay:10.37,2013-06-08 00:59:00,
2013-06-07 20:05:00,63.8,50.1,29.93,SE,139,0.0,0.0,61,0.00,FEW,,0.00,WeatherDisplay:10.37,2013-06-08 01:05:00,
2013-06-07 20:10:00,63.3,50.1,29.93,SE,139,0.0,0.0,62,0.00,FEW,,0.00,WeatherDisplay:10.37,2013-06-08 01:10:00,
2013-06-07 20:16:00,62.6,50.2,29.93,SE,139,0.0,0.0,64,0.00,FEW,,0.00,WeatherDisplay:10.37,2013-06-08 01:16:00,
2013-06-07 20:22:00,62.2,50.3,29.93,SE,139,0.0,0.0,65,0.00,FEW,,0.00,WeatherDisplay:10.37,2013-06-08 01:22:00,
2013-06-07 20:27:00,61.9,50.4,29.93,SE,139,0.0,0.0,66,0.00,FEW,,0.00,WeatherDisplay:10.37,2013-06-08 01:27:00,
2013-06-07 20:33:00,61.5,50.0,29.93,SE,139,0.0,0.0,66,0.00,FEW,,0.00,WeatherDisplay:10.37,2013-06-08 01:33:00,
2013-06-07 20:38:00,61.2,49.3,29.93,SE,139,0.0,0.0,65,0.00,FEW,,0.00,WeatherDisplay:10.37,2013-06-08 01:38:00,
2013-06-07 20:43:00,61.1,49.2,29.93,SE,139,0.0,0.0,65,0.00,FEW,,0.00,WeatherDisplay:10.37,2013-06-08 01:43:00,
2013-06-07 20:48:00,61.0,49.6,29.93,SE,139,0.0,0.0,66,0.00,FEW,,0.00,WeatherDisplay:10.37,2013-06-08 01:48:00,
2013-06-07 20:53:00,60.7,49.3,29.93,SE,139,0.0,0.0,66,0.00,FEW,,0.00,WeatherDisplay:10.37,2013-06-08 01:53:00,
2013-06-07 20:58:00,60.6,49.6,29.93,SE,139,0.0,0.0,67,0.00,FEW,,0.00,WeatherDisplay:10.37,2013-06-08 01:58:00,
2013-06-07 21:03:00,60.4,49.8,29.93,SE,139,0.0,0.0,68,0.00,FEW,,0.00,WeatherDisplay:10.37,2013-06-08 02:03:00,
2013-06-07 21:08:00,60.1,49.9,29.93,SE,139,0.0,0.0,69,0.00,FEW,,0.00,WeatherDisplay:10.37,2013-06-08 02:08:00,
2013-06-07 21:14:00,59.8,50.0,29.93,SE,139,0.0,0.0,70,0.00,FEW,,0.00,WeatherDisplay:10.37,2013-06-08 02:14:00,
2013-06-07 21:19:00,59.4,49.2,29.93,SE,139,0.0,0.0,69,0.00,FEW,,0.00,WeatherDisplay:10.37,2013-06-08 02:19:00,
2013-06-07 21:24:00,59.2,49.0,29.93,SE,139,0.0,0.0,69,0.00,FEW,,0.00,WeatherDisplay:10.37,2013-06-08 02:24:00,
2013-06-07 21:30:00,59.0,49.2,29.93,SE,139,0.0,0.0,70,0.00,FEW,FEW,0.00,WeatherDisplay:10.37,2013-06-08 02:30:00,
2013-06-07 21:35:00,58.7,49.4,29.93,SE,139,0.0,0.0,71,0.00,FEW,FEW,0.00,WeatherDisplay:10.37,2013-06-08 02:35:00,
2013-06-07 21:40:00,58.4,49.4,29.93,SE,139,0.0,0.0,72,0.00,FEW,FEW,0.00,WeatherDisplay:10.37,2013-06-08 02:40:00,
2013-06-07 21:45:00,58.1,49.1,29.93,SE,139,0.0,0.0,72,0.00,FEW,FEW,0.00,WeatherDisplay:10.37,2013-06-08 02:45:00,
2013-06-07 21:49:00,57.9,49.3,29.94,SE,139,0.0,0.0,73,0.00,FEW,,0.00,WeatherDisplay:10.37,2013-06-08 02:49:00,
2013-06-07 21:54:00,57.7,49.5,29.94,SE,139,0.0,0.0,74,0.00,FEW,,0.00,WeatherDisplay:10.37,2013-06-08 02:54:00,
2013-06-07 21:59:00,57.6,49.4,29.94,SE,139,0.0,0.0,74,0.00,FEW,,0.00,WeatherDisplay:10.37,2013-06-08 02:59:00,
2013-06-07 22:05:00,57.5,49.3,29.94,SE,139,0.0,0.0,74,0.00,BKN,BKN,0.00,WeatherDisplay:10.37,2013-06-08 03:05:00,
2013-06-07 22:10:00,57.3,49.5,29.94,SE,139,0.0,0.0,75,0.00,BKN,BKN,0.00,WeatherDisplay:10.37,2013-06-08 03:10:00,
2013-06-07 22:15:00,57.2,49.7,29.94,SE,139,0.0,0.0,76,0.00,BKN,BKN,0.00,WeatherDisplay:10.37,2013-06-08 03:15:00,
2013-06-07 22:20:00,57.0,49.9,29.94,SE,139,0.0,0.0,77,0.00,BKN,BKN,0.00,WeatherDisplay:10.37,2013-06-08 03:20:00,
2013-06-07 22:25:00,56.8,50.4,29.94,SE,139,0.0,0.0,79,0.00,BKN,BKN,0.00,WeatherDisplay:10.37,2013-06-08 03:25:00,
2013-06-07 22:30:00,56.6,50.5,29.94,SE,139,0.0,0.0,80,0.00,BKN,,0.00,WeatherDisplay:10.37,2013-06-08 03:30:00,
2013-06-07 22:35:00,56.1,50.7,29.94,SE,139,0.0,0.0,82,0.00,BKN,,0.00,WeatherDisplay:10.37,2013-06-08 03:35:00,
2013-06-07 22:40:00,55.9,50.5,29.94,SE,139,0.0,0.0,82,0.00,BKN,,0.00,WeatherDisplay:10.37,2013-06-08 03:40:00,
2013-06-07 22:45:00,55.9,51.1,29.94,SE,139,0.0,0.0,84,0.00,BKN,,0.00,WeatherDisplay:10.37,2013-06-08 03:45:00,
2013-06-07 22:50:00,55.8,51.0,29.94,SE,139,0.0,0.0,84,0.00,BKN,,0.00,WeatherDisplay:10.37,2013-06-08 03:50:00,
2013-06-07 22:55:00,55.8,51.4,29.94,SE,139,0.0,0.0,85,0.00,BKN,,0.00,WeatherDisplay:10.37,2013-06-08 03:55:00,
2013-06-07 23:00:00,55.8,51.7,29.94,SE,139,0.0,0.0,86,0.00,BKN,,0.00,WeatherDisplay:10.37,2013-06-08 04:00:00,
2013-06-07 23:01:00,55.7,51.6,29.94,SE,139,0.0,0.0,86,0.00,FEW,,0.00,WeatherDisplay:10.37,2013-06-08 04:01:00,
2013-06-07 23:07:00,55.6,51.5,29.94,SE,139,0.0,0.0,86,0.00,FEW,,0.00,WeatherDisplay:10.37,2013-06-08 04:07:00,
2013-06-07 23:12:00,55.6,51.5,29.94,SE,139,0.0,0.0,86,0.00,FEW,,0.00,WeatherDisplay:10.37,2013-06-08 04:12:00,
2013-06-07 23:17:00,55.6,51.8,29.94,SE,139,0.0,0.0,87,0.00,FEW,,0.00,WeatherDisplay:10.37,2013-06-08 04:17:00,
2013-06-07 23:22:00,55.5,52.0,29.94,SE,139,0.0,0.0,88,0.00,FEW,,0.00,WeatherDisplay:10.37,2013-06-08 04:22:00,
2013-06-07 23:27:00,55.5,52.0,29.94,SE,139,0.0,0.0,88,0.00,FEW,,0.00,WeatherDisplay:10.37,2013-06-08 04:27:00,
2013-06-07 23:32:00,55.3,52.1,29.94,SE,139,0.0,0.0,89,0.00,FEW,,0.00,WeatherDisplay:10.37,2013-06-08 04:32:00,
2013-06-07 23:37:00,55.3,52.4,29.94,SE,139,0.0,0.0,90,0.00,FEW,,0.00,WeatherDisplay:10.37,2013-06-08 04:37:00,
2013-06-07 23:42:00,55.4,52.5,29.93,SE,139,0.0,0.0,90,0.00,FEW,,0.00,WeatherDisplay:10.37,2013-06-08 04:42:00,
2013-06-07 23:47:00,55.4,52.5,29.93,SE,139,0.0,0.0,90,0.00,FEW,,0.00,WeatherDisplay:10.37,2013-06-08 04:47:00,
2013-06-07 23:52:00,55.5,52.6,29.93,SE,139,0.0,0.0,90,0.00,FEW,,0.00,WeatherDisplay:10.37,2013-06-08 04:52:00,
2013-06-07 23:57:00,55.4,52.5,29.93,WNW,300,0.0,0.3,90,0.00,FEW,,0.00,WeatherDisplay:10.37,2013-06-08 04:57:00,